Regional Weather Roundup
Issued by NWS

Home | Current Version | Previous Version | Text Only | Print | Product List | Glossary On
Versions: 1 2 3 4 5 6 7 8 9 10 11 12 13 14 15 16 17 18 19 20 21 22 23 24 25 26 27 28 29 30 31 32 33 34 35 36 37 38 39 40 41 42 43 44 45 46 47 48 49 50
117
ASUS46 KSEW 182210
RWRWA

WASHINGTON REGIONAL WEATHER ROUNDUP
NATIONAL WEATHER SERVICE SEATTLE WA
200 PM PST THU JAN 18 2018

NOTE:"FAIR" INDICATES FEW OR NO CLOUDS BELOW 12,000 FEET WITH NO
SIGNIFICANT WEATHER AND/OR OBSTRUCTIONS TO VISIBILITY.

WAZ507-509-555>559-182300-
SEATTLE, TACOMA, EVERETT, AND VICINITY

CITY           SKY/WX    TMP DP  RH WIND       PRES   REMARKS
EVERETT        CLOUDY    45  40  82 SE12      29.75F
BOEING FIELD   LGT RAIN  47  41  80 VRB7      29.78F
RENTON         CLOUDY    49  41  74 S3        29.77F
SEATAC AIRPORT LGT RAIN  46  40  79 W7        29.77F
JBLM-MCCHORD   CLOUDY    48  47  95 S8        29.76F
PUYALLUP       FAIR      50  39  66 S8        29.76F
BREMERTON      LGT RAIN  43  41  93 S10       29.76F
JBLM-FT LEWIS  CLOUDY    48  46  92 SE10      29.75F
TACOMA NARROWS LGT RAIN  44  42  93 W5        29.76F
$$

WAZ001-503-506-510-514-515-182300-
NORTH INTERIOR

CITY           SKY/WX    TMP DP  RH WIND       PRES   REMARKS
BELLINGHAM     CLOUDY    50  39  66 S18G26    29.71F
FRIDAY HARBOR  CLOUDY    47  39  74 S15G24    29.71F
EASTSOUND      PTSUNNY   48  39  71 S13G22    29.71S
PORT ANGELES   PTSUNNY   45  43  93 CALM      29.69F
EDIZ HOOK      CLOUDY    46  42  85 CALM      29.69F
PORT TOWNSEND  CLOUDY    46  41  81 S12       29.71F
NAS WHIDBEY    PTSUNNY   52  40  63 S28G36    29.74F
ARLINGTON      LGT RAIN  48  39  71 S15       29.75F
BURLINGTON     CLOUDY    50  39  66 S14       29.73S
$$

WAZ020-022-039-040-504-511-512-182300-
SOUTHWEST INTERIOR

CITY           SKY/WX    TMP DP  RH WIND       PRES   REMARKS
SHELTON        LGT RAIN  45  42  89 S3        29.73F
OLYMPIA        LGT RAIN  45  42  89 SW16G23   29.77F
CHEHALIS       CLOUDY    48  43  81 S14       29.79S FOG
KELSO          CLOUDY    46  41  81 SE10G18   29.82S
VANCOUVER      LGT RAIN  46  45  96 SE7       29.84S
SCAPPOOSE, OR  CLOUDY    47  43  86 SE10      29.83S
PORTLAND, OR   LGT RAIN  46  43  89 S10       29.85S
$$

WAZ021-516-517-182300-
WASHINGTON COAST

CITY           SKY/WX    TMP DP  RH WIND       PRES   REMARKS
FORKS          PTSUNNY   51  39  63 S20G28    29.66F
HOQUIAM        RAIN      44  41  89 S21G28    29.75R FOG
ASTORIA, OR    CLOUDY    45  42  89 S12       29.76F
$$

WAZ019-023-024-040-567>569-182300-
CASCADE MOUNTAINS AND COLUMBIA GORGE

CITY           SKY/WX    TMP DP  RH WIND       PRES   REMARKS
STAMPEDE PASS  CLOUDY    34  31  88 CALM      29.71F
TROUTDALE, OR  LGT RAIN  46  42  86 SE10      29.85F
HOOD RIVER, OR DRIZZLE   45  39  81 NW3       29.83F
THE DALLES, OR PTSUNNY   52  40  63 NW10      29.81F
$$

WAZ026-027-041>044-520-521-182300-
EAST SLOPES

CITY           SKY/WX    TMP DP  RH WIND       PRES   REMARKS
OMAK           SUNNY     41  37  86 S3        29.78S
WENATCHEE      MOSUNNY   42  36  79 SE3       29.77F
ELLENSBURG     SUNNY     48  33  56 SE5       29.76F
YAKIMA         MOSUNNY   49  40  71 S6        29.78F
SUNNYSIDE ARPT CLOUDY    46  39  77 E12       29.80F
YAKIMA TC      FAIR      44  42  92 W3        29.75F
$$

WAZ028-034-035-182300-
COLUMBIA BASIN

CITY           SKY/WX    TMP DP  RH WIND       PRES   REMARKS
EPHRATA        CLOUDY    44  37  76 CALM      29.79F
MOSES LAKE     CLOUDY    44  39  82 S10       29.80F
PASCO          CLOUDY    47  39  74 SE3       29.84F
RICHLAND ARPT  CLOUDY    49  39  68 S7        29.83F
HERMISTON, OR  CLOUDY    47  40  76 S5        29.83F
$$

WAZ036>038-182300-
NORTHEAST WASHINGTON

CITY           SKY/WX    TMP DP  RH WIND       PRES   REMARKS
SPOKANE GEIGER CLOUDY    39  38  96 SW16      29.79F
SPOKANE FELTS  CLOUDY    43  39  86 SW8       29.81S
FAIRCHILD AFB  CLOUDY    38  38 100 SW8       29.78F
COEURDALENE,ID CLOUDY    40  37  89 SE5       29.80F
DEER PARK      CLOUDY    37  36  96 S6        29.79F
$$

WAZ029>033-182300-
SOUTHEAST WASHINGTON

CITY           SKY/WX    TMP DP  RH WIND       PRES   REMARKS
PULLMAN        CLOUDY    38  35  89 SW7       29.86F
LEWISTON, ID   LGT RAIN  44  37  76 NW5       29.88R
WALLA WALLA    LGT RAIN  44  38  79 S13       29.87F
PENDLETON, OR  LGT RAIN  42  39  89 SE7       29.85F
$$




USA.gov is the U.S. government's official web portal to all federal, state and local government web resources and services.